www.pogodaiklimat.ru

Погода и климат >> Архив погоды >> Россия >> Ненецкий АО >> Канин Нос


ПОГОДА в Канином Носе

  • Прогноз погоды в Канином Носе
  • Монитор погоды в Канином Носе

АРХИВ ПОГОДЫ в Канином Носе

Время (UTC), дата Ветер
(напр.,м/с)
 
Видим.   Явления Облачность Т
(С)
Тd
(С)
f
(%)
Тe
(С)
Тes
(С)
Комфортность P
(гПа)
Po
(гПа)
Тmin
(С)
Tmax
(С)
R
(мм)
R24
(мм)
S
(см)
06 13.06 СЗ 6-13
{16}
20 км 10/10 300 м
[Sc]
+3.0 +1.0 87 -3 -3 1022.6 1016.5
09 13.06 СЗ 5-11
{16}
20 км 10/10 600 м
[Sc]
+3.8 +1.3 84 -1 -1 1023.0 1016.9
12 13.06 СЗ 9-12
{13}
20 км 10/10 600 м
[Sc]
+4.0 +1.3 83 -3 -3 1022.9 1016.8
15 13.06 СЗ 5-11
{13}
20 км 10/10 600 м
[Sc]
+3.5 +1.2 85 -2 -2 1022.1 1016.0 +4.1
18 13.06 СЗ 6-12
{12}
20 км 10/10 300 м
[Sc]
+2.9 +0.8 86 -3 -3 1020.8 1014.6
21 13.06 СЗ 5-10
{12}
20 км 10/10 300 м
[Sc]
+2.2 +0.2 87 -3 -3 1019.7 1013.5
00 14.06 СЗ 6
{10}
20 км 9/9 600 м
[Sc]
+2.7 +0.6 86 -3 -3 1018.5 1012.4
03 14.06 СЗ 6
{10}
20 км 9/9 600 м
[Sc]
+3.5 +1.2 85 -2 -2 1017.0 1010.9 +2.1
06 14.06 З 5 20 км 10/10 300 м
[Sc]
+4.4 +2.1 85 -1 -1 1015.8 1009.7
09 14.06 З 6 20 км 10/10 300 м
[Sc]
+4.3 +2.3 87 -1 -1 1014.6 1008.5
12 14.06 З 7 20 км 10/10 300 м
[Sc]
+3.7 +2.7 93 -2 -2 1013.6 1007.5
15 14.06 З 8-11
{11}
4000 м дымка {дождь} 10/10 300 м
[Sc]
+3.7 +3.2 97 -3 -3 1011.3 1005.3 +4.7 0.0
18 14.06 СЗ 6-10
{11}
20 км в посл. час ливневой дождь 10/10 300 м
[Cb cap]
+3.5 +2.9 96 -2 -2 1010.1 1004.1
21 14.06 СЗ 7-11
{12}
20 км 10/10 300 м
[Sc]
+3.1 +1.6 90 -3 -3 1009.8 1003.7
00 15.06 СЗ 8-11
{11}
20 км {ливн. осадки} 10/10 300 м
[Cb cap]
+2.9 +1.1 88 -4 -4 1009.3 1003.2
03 15.06 СЗ 8-11
{13}
20 км 10/10 300 м
[Sc]
+2.5 +1.2 91 -4 -4 1009.6 1003.5 +2.5 0.0
06 15.06 СЗ 7-10
{13}
20 км {ливн. осадки} 10/10 300 м
[Sc]
+2.6 +1.8 94 -4 -4 1010.4 1004.3 +2.3
09 15.06 СЗ 6-10
{10}
20 км 10/10 300 м
[Sc]
+3.6 +1.8 88 -2 -2 1011.1 1005.0
12 15.06 З 8-10
{11}
20 км 10/10 300 м
[Sc]
+3.7 +2.6 93 -3 -3 1010.7 1004.6
15 15.06 З 9-12
{12}
20 км 10/10 300 м
[Sc]
+3.6 +2.7 94 -3 -3 1009.3 1003.2 +4.0 0.0
18 15.06 З 8-11
{12}
20 км 10/10 300 м
[Sc]
+3.6 +3.0 96 -3 -3 1007.1 1001.0
21 15.06 З 7
{11}
4000 м дымка 10/10 300 м
[Sc]
+3.6 +3.0 96 -3 -3 1004.6 998.6
00 16.06 З 7-10
{11}
4000 м дымка 10/10 300 м
[Sc]
+3.5 +3.2 98 -3 -3 1002.2 996.2
03 16.06 СЗ 5
{11}
20 км 10/10 600 м
[Sc]
+3.4 +3.2 99 -2 -2 1001.2 995.2 +3.4
06 16.06 СЗ 5-10
{11}
20 км 10/10 600 м
[Sc]
+3.8 +2.9 94 -1 -1 1001.9 995.9 +3.3
09 16.06 З 7-10
{13}
20 км 10/10 600 м
[Sc]
+4.5 +2.3 86 -1 -1 1003.0 997.0
12 16.06 СЗ 8-12
{13}
20 км 10/10 600 м
[Sc]
+4.3 +1.7 83 -2 -2 1003.6 997.6
15 16.06 З 9-13
{16}
4000 м дымка 10/10 300 м
[St]
+3.9 +2.6 91 -3 -3 1003.7 997.7 +4.9
18 16.06 СЗ 9-12
{15}
20 км {ливн. осадки} 8/4 600 м
[Sc Ac lent]
+4.1 +1.8 85 -2 -2 1003.4 997.4
21 16.06 З 10-14
{14}
20 км 9/8 600 м
[Sc Ac As]
+3.8 +2.2 89 -3 -3 1002.7 996.7
00 17.06 СЗ 12-17
{17}
4000 м слаб. ливневой дождь 10/10 300 м
[Cb cap]
+3.2 +1.9 91 -5 -5 1002.3 996.3
03 17.06 З 10-14
{17}
4000 м слаб. ливневой дождь 10/10 300 м
[Cb cap]
+3.6 +2.4 92 -4 -4 1002.6 996.6 +3.2 1
06 17.06 З 10-14
{18}
1000 м в посл. час ливневой дождь 10/10 300 м
[Cb cap]
+3.6 +2.3 91 -4 -4 1003.2 997.2
09 17.06 З 8-11
{14}
4000 м дымка {ливн. осадки} 10/10 300 м
[Cb cap]
+4.1 +2.9 92 -2 -2 1003.8 997.8
12 17.06 З 9-12
{15}
4000 м дымка {ливн. осадки} 10/10 300 м
[St]
+4.6 +3.0 89 -2 -2 1004.4 998.4
15 17.06 З 9-11
{15}
20 км 10/8 600 м
[Sc Ac As]
+4.1 +1.8 85 -2 -2 1004.9 998.9 +5.0 0.1
18 17.06 З 8-10
{13}
20 км 9/8 600 м
[Sc Ac lent]
+3.6 +2.0 89 -3 -3 1004.5 998.5
21 17.06 СЗ 8-11
{13}
20 км {ливн. осадки} 9/9 300 м
[Cb cap]
+3.1 +1.7 91 -4 -4 1004.5 998.5
00 18.06 СЗ 5-11
{12}
10 км слаб. ливневой дождь 9/9 300 м
[Cb cap]
+2.5 +1.0 90 -3 -3 1005.1 999.1
03 18.06 СЗ 5
{14}
20 км {ливн. осадки} 9/8 600 м
[Sc Ac As]
+2.7 +0.4 85 -3 -2 1005.7 999.7 +2.1 0.6
06 18.06 СЗ 4 20 км {ливн. осадки} 9/9 600 м
[Sc]
+2.9 +1.1 88 -2 -1 1006.6 1000.5
09 18.06 СЗ 4 20 км 9/9 600 м
[Sc]
+4.5 +1.2 79 0 +1 1007.8 1001.7
12 18.06 СЗ 3 20 км 9/9 600 м
[Sc]
+4.4 +0.7 77 +1 +2 1008.8 1002.7
15 18.06 СЗ 3 20 км 9/8 600 м
[Sc Ac As]
+3.4 +0.8 83 -1 -0 1009.5 1003.4 +4.8
18 18.06 С 4 20 км в посл. час ливневой снег 9/9 600 м
[Cb cap]
+2.2 +0.5 89 -3 -3 1009.3 1003.2
21 18.06 СЗ 4 20 км 9/9 300 м
[Sc]
+2.3 +0.3 87 -3 -3 1009.2 1003.1
00 19.06 З 3 20 км 10/8 600 м
[Sc Ac As]
+2.6 +1.2 90 -2 -2 1008.9 1002.8
03 19.06 З 5 20 км 9/8 600 м
[Sc Ac lent]
+3.7 +0.5 80 -1 -1 1008.6 1002.5 +1.3 0.0
06 19.06 ЮЗ 1 20 км 9/8 600 м
[Sc Ac lent]
+3.6 +1.3 85 +2 +3 1008.2 1002.1
09 19.06 ЮЗ 3 20 км 9/8 600 м
[Sc Ac As]
+4.8 -0.1 71 +2 +3 1007.8 1001.7
12 19.06 Ю 3 20 км 10/10 600 м
[Sc]
+4.3 +0.5 76 +1 +1 1008.1 1002.0
15 19.06 Ю 1 20 км {дождь} 10/10 600 м
[Sc]
+3.3 +0.9 84 +2 +2 1007.8 1001.7 +4.9 0.0
18 19.06 З 1 20 км {дождь} 9/9 600 м
[Sc]
+2.8 +1.6 92 +1 +1 1007.4 1001.3
21 19.06 СЗ 5 20 км 8/5 600 м
[Sc Ac As Ci fib]
+3.2 +1.1 86 -2 -2 1007.5 1001.4
00 20.06 С 6 20 км {ливн. осадки} 9/8 600 м
[Cb cap Ac As]
+2.6 +1.4 92 -3 -3 1007.7 1001.6
03 20.06 СЗ 3 20 км 9/9 300 м
[Sc]
+2.6 0.0 83 -1 -1 1008.7 1002.6 +2.3 0.4

 

Местоположение метеостанции Канин Нос (Ненецкий АО, Россия): широта 68.65 долгота 43.30 высота над уровнем моря 49 м.

В архиве по умолчанию представлена погода в Канином Носе за последнюю неделю. Архивные данные за месяц целиком и за предыдущие месяцы, начиная с января 2011 года, Вы можете получить, выбрав интересующий диапазон дат из раскрывающегося списка и нажав кнопку "Ввод!".


*Определитесь, кто Вы:
робот инопланетянин человек

Внимание! Время в таблицах - всемирное. Для получения местного времени необходимо прибавить поправку, которая равна 3 ч.

Смотрите также архив погоды в соседних городах и на ближайших метеорологических станциях:

Погода в Шойне (Ненецкий АО, Россия) (93 км)
Погода в Святом Носе (Мурманская область, Россия) (155 км)
Погода на Мысе Микулкин (Ненецкий АО, Россия) (168 км)
Погода в Иоканьге (Мурманская область, Россия) (170 км)
Погода на Моржовец Острове (Архангельская область, Россия) (217 км)
Погода в Каневке (Мурманская область, Россия) (227 км)
Погода в Неси (Ненецкий АО, Россия) (235 км)
Погода в Бугрино (Ненецкий АО, Россия) (244 км)
Погода в Индиге (Ненецкий АО, Россия) (247 км)
Погода на Колгуевом Острове (Ненецкий АО, Россия) (249 км)

Пояснения к столбцам:

Ветер - указаны скорость ветра в м/с - средняя за 10 мин, порывы в срок и между сроками (в фигурных скобках) и направление, откуда дует ветер: С - северный, СВ - северо-восточный, В - восточный, ЮВ - юго-восточный, Ю - южный, ЮЗ - юго-западный, З - западный, СЗ - северо-западный.
Видимость - горизонтальная дальность видимости в метрах или километрах. При видимости от 1 до 10 км при отсутствии осадков обычно наблюдается дымка, при ухудшении видимости до 1 км и менее - туман. В сухую погоду видимость может ухудшаться дымом, пылью или мглою.
Явления - указаны атмосферные явления, наблюдавшиеся в срок или в последний час перед сроком; фигурными скобками обозначены явления, наблюдавшиеся между сроками (за 1-3 часа до срока); квадратными скобками обозначены град или гололедные отложения с указанием их диаметра в мм.
Облачность - указаны через наклонную черту общая и нижняя облачность в баллах и высота нижней границы облаков в метрах; квадратными скобками обозначены формы облаков: Ci - перистые, Cs - перисто-слоистые, Cc - перисто-кучевые, Ac - высококучевые, As - высокослоистые, Sc - слоисто-кучевые, Ns - слоисто-дождевые, Cu - кучевые, Cb - кучево-дождевые. Подробнее классификацию облаков см. в Атласе облаков (PDF).
T - Температура воздуха - температура, измеренная на высоте 2 м над землей.
Td - Температура точки росы - температура, при понижении до которой содержащийся в воздухе водяной пар достигнет насыщения.
f - Относительная влажность воздуха - влажноcть воздуха, измеренная на высоте 2 м над землей.
Te - Эффективная температура - температура, которую ощущает одетый по сезону человек в тени. Характеристика душности погоды. При расчете учитывается влияние влажности воздуха и скорости ветра на теплоощущения человека.
Tes - Эффективная температура на солнце - температура, которую ощущает человек, с поправкой на солнечный нагрев. Характеристика знойности погоды. Зависит от высоты солнца над горизонтом, облачности и скорости ветра. Ночью, в пасмурную погоду, а также при ветре 12 м/с и более поправка равна нулю.
P - Атмосферное давление - приведенное к уровню моря атмосферное давление.
Po - Атмосферное давление - измеренное на уровне метеостанции атмосферное давление.
Tmin - Минимальная температура - минимум температуры воздуха на высоте 2 м над землей.
Tmax - Максимальная температура - максимум температуры воздуха на высоте 2 м над землей.
R - Количество осадков - Количество выпавших осадков за период времени, мм. При наведении курсора мыши на число - период времени, за который выпало указанное количество осадков.
R24 - Количество осадков - Количество выпавших осадков за 24 часа, мм.
S - Снежный покров - Высота снежного покрова, см. При наведении курсора мыши на число - состояние снежного покрова и степень покрытия местности в баллах.